{"data":{"norad_id":57677,"intl_designator":"2023-124Q","name":"STARLINK-30303","alt_names":[],"object_type":"PAYLOAD","status":"ACTIVE","operator":null,"country":"US","launch_date":"2023-08-22","launch_site_code":"AFWTR","launch_vehicle":null,"mission":null,"orbit_class":"UNKNOWN","rcs_meters":null,"size_class":null,"mass_kg":null,"dimensions":null,"purposes":["comms"],"wikipedia_slug":null,"has_3d_model":false,"image_url":null,"decayed_at":null,"tle_current":{"epoch":"2026-09-20T14:15:20.928672Z","epoch_age_seconds":123532,"freshness":"FRESH","line1":"1 57677U 23124Q   26263.59399223 -.00001396  00000+0 -30205-4 0  9999","line2":"2 57677  53.1628  19.0239 0001165  81.2115 278.9019 15.34381646173440","mean_motion":15.34381646,"eccentricity":0.0001165,"inclination_deg":53.1628,"raan_deg":19.0239,"arg_perigee_deg":81.2115,"mean_anomaly_deg":278.9019,"bstar":-3.0205e-5,"rev_number":17344,"period_min":93.848880671504,"perigee_km":461.96082846347,"apogee_km":463.55475695017,"semimajor_km":6840.8947927068,"source":"CELESTRAK","updated_at":"2026-09-21T09:00:33.672131Z"}}}